Location: Cisewo
(53.3833°N, 14.9000°E)
Time: 10:44:48
(UTC+00:00)

Cosmos 1486 Rocket - Pass Details

Date: 18 April 2021
Orbit: 758 x 784 km, 74.1° (Epoch: 14 May)

Event Time Altitude Azimuth Distance (km) Brightness Sun altitude
Exits shadow 23:40:26 73° 207° (SSW) 821 3.9 -24.9°
Maximum altitude 23:41:00 89° 293° (WNW) 789 3.9 -24.8°
Drops below altitude 10° 23:46:22 10° 26° (NNE) 2,352 7.5 -24.7°
Sets 23:48:46 0° 27° (NNE) 3,286 8.6 -24.6°
